Terminal Aerodrome Forecast
Issued by NWS

Home | Current Version | Previous Version | Text Only | Print | Product List | Glossary On
Versions: 1 2 3 4 5 6 7 8 9 10 11 12 13 14 15 16 17 18 19 20 21 22 23 24
000
FTUS41 KGYX 181217 AAA
TAFRKD
TAF AMD
KRKD 181217Z 1812/1912 30006KT 4SM -RA BR SCT008 OVC015
     FM181600 31009G16KT P6SM -SHRA OVC025
     FM181900 30010G20KT P6SM BKN040
     FM182100 30006KT P6SM OVC050
      AMD LTD TO CLD VIS AND WIND=

USA.gov is the U.S. government's official web portal to all federal, state and local government web resources and services.